Temperature
21 21 22 22 22 22 20 19 18 19 20 20 20 19 21 21 21 21 20 20 20 19 19 18 18 17 17 16 16 15 15 15 14 14 14 13 13 13 13 13 12 12 12 12
21 22 22 22 22 21 21 21 20 20 20 20 21 21 21 21 21 21 20 20 20 19 19 18 18 18 17 17 16 16 15 15 14 14 14 14 13 13 13 13 13 12 12 12
19 20 21 21 22 22 21 21 20 20 20 20 20 20 21 22 21 21 21 20 20 19 19 19 18 18 17 17 16 16 15 15 15 14 14 14 14 13 13 13 13 12 12 12
18 20 21 20 21 22 22 22 21 21 20 20 21 22 22 22 22 21 21 20 20 19 19 18 18 18 17 17 16 16 16 15 15 15 14 14 14 13 13 13 13 12 12 12
17 19 19 20 22 22 22 22 21 20 20 21 21 21 20 21 22 21 21 20 20 19 19 18 18 17 17 17 16 16 16 15 15 15 14 14 14 13 13 13 13 13 12 12
17 19 19 20 22 23 22 21 21 21 20 20 20 17 18 21 21 21 20 20 19 19 18 18 17 17 17 17 16 16 15 15 15 14 14 14 14 14 13 13 13 13 13 12
16 17 18 19 22 22 21 20 22 22 22 21 20 20 21 21 21 20 20 19 19 18 18 17 17 17 17 16 16 15 15 15 15 14 14 14 14 14 13 13 13 13 13 12
15 17 18 20 22 20 20 22 23 23 23 23 22 22 21 21 20 20 19 19 18 18 17 17 17 17 16 16 16 15 15 15 15 14 14 14 14 14 14 13 13 13 13 13
16 18 20 22 23 24 24 23 23 23 23 23 22 21 21 20 20 19 19 18 18 18 17 17 16 16 16 16 16 15 15 15 15 14 14 14 14 14 14 14 13 13 13 13
17 18 20 22 23 23 24 24 23 23 23 22 22 21 20 20 19 19 19 18 18 17 17 17 16 16 16 16 15 15 15 15 15 14 14 14 14 14 14 14 13 13 13 13
17 18 20 21 22 23 23 23 23 22 22 22 22 21 20 20 19 19 18 18 17 17 17 16 16 16 16 16 15 15 15 15 14 14 14 14 14 13 13 13 13 13 13 13
17 19 18 21 23 23 22 22 22 22 21 21 21 21 20 20 19 19 18 17 17 17 16 16 16 16 16 15 15 15 15 14 14 14 13 13 13 13 13 13 13 13 13 13
22 23 22 23 23 22 22 22 22 21 21 21 20 20 20 19 18 18 18 17 17 16 16 16 15 15 15 15 14 14 14 13 13 13 13 12 12 12 13 13 13 13 13 12
22 22 21 22 22 22 22 21 21 21 20 20 20 19 19 19 18 17 17 17 16 16 15 15 15 15 14 14 14 13 13 13 12 12 12 12 11 11 11 12 12 12 12 12
21 21 22 22 22 21 21 20 20 20 19 19 19 18 18 18 17 17 16 16 15 15 15 14 14 14 13 13 13 13 12 12 11 11 11 11 11 11 11 11 11 11 11 12
20 21 21 21 21 20 20 20 19 19 18 18 18 17 17 17 16 16 15 15 15 14 14 14 13 13 12 12 12 12 11 11 10 10 10 10 10 10 10 10 10 10 10 10
19 19 19 19 20 20 19 19 19 19 18 17 17 16 16 15 15 15 14 14 13 13 13 13 12 12 12 11 11 11 10 10 10 10 9 9 9 9 9 9 9 9 9 9
19 19 20 20 20 19 19 19 18 18 17 17 16 15 15 15 14 14 13 13 12 12 12 11 11 11 11 10 10 10 10 9 9 9 9 8 8 8 8 8 8 8 8 8
18 19 19 19 19 19 19 18 17 17 16 16 15 15 14 14 13 13 12 12 12 11 11 10 10 10 10 10 9 9 9 9 8 8 8 8 8 7 7 7 7 7 7 7
18 18 18 18 18 18 18 17 17 16 15 15 15 14 13 13 12 12 11 11 11 11 10 10 9 9 9 9 9 9 8 8 8 7 7 7 7 7 7 6 6 6 6 6
16 16 17 17 17 17 16 16 16 15 14 14 14 13 13 12 12 11 11 10 10 9 9 9 9 9 8 8 8 8 8 7 7 7 6 6 6 6 6 6 5 5 5 5
15 15 15 15 15 15 15 14 14 14 13 13 13 12 12 11 11 10 10 10 9 9 8 8 8 8 8 7 7 7 7 7 6 6 6 6 6 5 5 5 5 5 5 4
13 13 14 14 14 13 13 13 13 13 12 12 12 11 11 11 10 10 9 9 8 8 8 8 7 7 7 7 7 6 6 6 6 6 5 5 5 5 5 4 4 4 4 4
12 12 12 12 12 12 11 11 11 11 11 11 11 10 10 10 9 9 9 8 8 7 7 7 7 6 6 6 6 6 6 5 5 5 5 5 4 4 4 4 4 4 3 3
11 11 11 11 11 11 11 10 10 10 10 10 9 9 9 9 9 8 8 7 7 7 6 6 6 6 6 6 5 5 5 5 5 4 4 4 4 4 3 3 3 3 3 3
10 10 10 10 10 10 10 10 9 9 9 9 8 8 8 8 8 7 7 7 7 6 6 6 6 5 5 5 5 5 5 4 4 4 4 4 3 3 3 3 3 2 2 2
9 9 9 9 9 9 9 9 9 9 8 8 8 8 7 7 7 7 7 6 6 6 6 5 5 5 5 5 5 4 4 4 4 4 3 3 3 3 2 2 2 2 2 2
Wind_Speed
6 6 4 6 8 7 7 9 9 8 8 9 9 10 9 8 7 7 6 6 7 7 6 6 5 5 4 4 4 4 3 2 2 2 1 2 3 4 4 4 4 4 5 5
4 5 4 5 8 9 8 7 8 6 7 7 6 5 6 8 8 8 7 7 7 7 7 6 6 6 4 4 3 3 3 2 2 1 1 2 3 3 4 4 5 5 5 5
4 6 3 5 8 9 7 7 9 10 10 5 6 8 9 9 9 8 7 7 7 6 6 7 7 6 6 5 4 4 3 2 2 1 2 2 3 3 3 4 4 5 5 5
2 2 5 9 7 7 7 7 8 7 7 10 9 7 6 8 9 8 7 7 6 6 5 4 4 5 5 4 4 4 3 3 3 2 2 3 2 3 3 3 3 3 4 5
3 2 7 9 6 4 5 5 5 8 7 7 7 6 2 2 7 7 7 6 5 5 5 4 5 5 5 4 3 3 3 4 4 3 3 3 3 4 3 2 3 3 3 4
4 3 6 9 7 2 5 3 5 7 9 9 8 5 5 4 6 6 6 5 5 5 5 5 4 5 6 4 3 2 4 4 4 3 3 4 4 4 3 2 3 3 4 4
5 5 8 9 5 3 4 8 4 7 9 10 9 7 6 7 6 6 6 6 6 7 5 4 4 6 5 3 2 4 3 3 3 3 4 4 4 3 3 3 3 3 4 4
5 4 9 6 4 7 9 4 4 7 7 8 7 7 8 8 8 8 6 6 7 7 5 3 4 6 5 1 3 2 1 1 2 3 4 3 3 4 3 3 3 4 4 5
9 9 8 5 7 6 6 6 6 7 7 10 9 8 8 8 8 7 7 6 6 7 6 3 2 4 3 2 1 1 0 1 2 3 3 3 3 4 3 3 3 4 3 4
4 7 6 5 4 4 6 7 7 8 8 10 9 9 9 8 7 7 6 6 6 7 6 3 2 3 1 0 1 2 1 2 3 3 4 4 3 3 3 3 3 4 4 4
4 6 4 6 6 6 5 5 6 7 7 9 11 9 9 8 8 7 6 5 6 6 6 4 3 3 3 2 2 2 1 2 3 3 3 4 4 3 3 3 3 3 4 4
8 9 7 9 9 8 8 8 8 8 7 7 9 10 9 8 7 7 7 6 7 7 6 4 4 3 3 3 3 3 2 3 3 3 3 3 4 5 5 5 6 5 4 3
10 9 8 8 7 9 9 9 9 9 9 8 8 9 10 8 7 7 7 8 8 7 6 5 4 4 3 3 3 3 2 2 2 3 3 3 3 4 5 7 7 7 7 7
7 4 4 6 7 8 8 8 7 7 7 8 8 9 9 8 8 9 8 7 8 7 6 5 5 4 4 3 3 3 3 4 3 3 3 3 3 3 3 4 6 6 7 8
10 8 8 7 6 7 7 8 9 8 8 7 8 10 10 11 10 8 8 8 8 8 6 6 6 4 4 4 4 4 3 3 3 3 3 3 3 3 4 4 4 5 6 8
8 5 5 6 9 9 9 10 11 10 9 8 8 9 10 10 10 9 8 8 9 8 6 6 5 3 4 5 5 4 3 7 5 3 4 4 4 4 4 5 5 5 6 6
4 5 6 7 9 10 10 10 12 11 10 10 11 11 11 11 11 9 8 8 9 7 6 6 4 3 4 5 5 3 3 4 7 5 4 4 4 5 4 4 5 5 5 7
9 10 9 10 11 11 10 10 10 11 11 10 12 12 12 12 11 10 9 9 9 7 5 4 4 4 5 4 4 3 3 3 3 3 3 4 4 4 4 5 5 6 5 7
7 7 7 8 8 9 10 10 10 10 11 12 13 12 11 11 11 10 9 9 9 6 3 3 7 6 4 5 5 3 4 4 4 3 3 4 4 4 4 4 4 5 5 5
2 2 4 5 6 7 8 8 10 10 11 13 13 13 11 10 11 11 10 7 5 4 4 4 5 4 3 4 6 3 4 4 3 3 3 3 4 4 4 4 4 4 5 5
2 2 4 5 5 6 8 10 11 11 10 12 14 13 12 10 10 10 9 6 3 4 5 6 4 2 2 3 5 3 3 3 2 2 2 3 3 4 4 4 4 4 4 5
2 3 5 5 7 6 6 7 9 11 11 11 11 12 12 10 9 8 6 6 6 7 5 3 3 3 3 4 3 2 2 2 2 1 2 2 2 3 3 4 4 4 4 4
2 4 5 6 6 6 7 7 9 10 10 11 11 11 11 9 8 8 6 4 5 7 5 3 4 4 3 3 2 2 1 1 1 1 1 1 2 2 2 3 3 4 4 4
2 3 4 5 6 7 7 6 7 7 8 8 8 10 10 8 5 4 5 9 10 8 4 4 5 4 3 2 2 1 1 0 0 1 1 1 1 2 2 2 3 3 4 5
1 3 4 6 6 5 6 7 8 7 7 6 6 7 6 6 6 6 6 7 9 7 4 4 4 3 2 2 1 1 1 1 1 1 1 1 1 1 2 2 3 3 4 4
1 2 3 4 5 5 5 6 6 6 6 6 4 4 5 5 6 6 5 6 7 7 4 2 2 2 2 2 2 2 2 1 1 1 1 2 2 2 2 3 4 4 4 5
1 2 2 2 3 4 5 6 6 6 6 7 5 5 5 6 6 6 6 5 4 4 3 3 3 2 2 2 2 2 2 1 1 1 1 1 1 2 2 3 3 4 4 4
Wind_Direction
228 238 217 220 229 207 187 189 192 224 217 230 217 205 201 194 185 181 185 187 188 193 199 197 192 196 193 191 185 171 162 179 227 255 292 324 335 337 340 345 348 343 346 347
299 284 275 251 239 221 217 209 208 213 237 235 207 178 175 177 175 180 189 191 191 191 188 192 194 196 187 186 184 163 163 194 227 258 298 309 315 331 343 342 340 346 349 345
276 301 359 280 239 216 216 212 191 209 224 194 171 181 182 182 180 185 189 187 183 184 189 195 197 190 187 191 176 163 174 199 214 232 273 289 307 334 333 327 334 340 343 345
225 358 253 250 257 218 215 235 208 196 193 182 183 185 182 176 171 176 176 172 173 174 174 179 179 176 176 168 163 170 188 211 222 227 259 283 304 309 309 311 320 324 329 334
144 227 276 289 278 198 183 260 226 183 178 169 138 89 21 201 163 166 167 165 168 168 159 155 158 158 145 149 158 171 207 223 227 222 241 269 282 285 285 294 308 309 309 323
136 181 246 255 271 219 111 281 268 172 163 156 130 136 229 205 146 135 133 139 141 135 124 133 148 135 126 142 156 209 230 233 232 222 229 248 262 271 271 265 277 294 309 307
177 214 259 255 263 93 149 234 237 172 162 159 173 190 185 154 137 133 131 133 131 123 122 141 145 125 121 133 215 245 242 237 244 242 241 247 261 272 274 275 292 301 303 304
163 194 252 248 157 179 213 209 167 160 159 156 161 147 141 142 141 137 129 124 126 120 119 121 126 121 121 181 254 243 215 249 273 272 272 270 267 281 286 281 286 294 301 304
191 214 240 225 204 206 171 168 174 164 161 146 143 152 152 151 150 147 141 137 129 126 119 100 105 116 128 262 273 170 87 306 300 305 301 297 278 281 291 287 277 283 285 288
247 264 261 246 213 184 176 173 171 165 160 152 152 156 152 151 153 151 147 142 132 124 120 108 84 83 99 349 100 104 57 325 321 320 315 315 306 295 291 288 282 282 284 282
271 279 301 279 236 204 183 163 154 154 160 159 151 154 156 155 156 154 147 142 132 129 127 117 90 61 30 26 76 82 31 350 341 334 323 320 316 293 281 269 254 256 266 263
239 237 218 239 234 205 185 184 174 161 156 158 156 156 155 156 157 150 144 135 127 124 121 111 90 60 26 30 70 78 31 355 345 341 336 335 333 332 317 305 311 302 294 288
235 243 227 239 225 204 190 187 178 169 164 159 155 151 147 147 149 142 138 134 134 134 128 112 88 58 21 22 55 63 39 1 354 353 350 346 345 342 336 338 341 334 327 320
248 224 225 219 214 203 185 173 158 147 151 150 147 142 138 134 133 134 138 140 134 125 118 108 90 57 16 29 55 46 28 20 18 356 349 347 345 341 341 347 350 347 338 333
251 230 223 219 196 182 164 149 147 151 147 142 143 143 142 139 139 138 134 128 119 112 108 102 87 53 21 40 53 43 30 14 12 3 1 358 355 356 358 357 353 345 349 354
251 241 211 193 188 182 171 166 168 170 161 151 148 146 142 137 132 127 124 123 119 116 112 103 90 62 46 53 53 41 27 33 42 28 17 15 14 13 8 5 3 2 1 356
220 221 212 207 198 193 189 184 178 171 162 155 152 144 136 129 123 120 118 115 114 112 107 103 95 72 63 60 60 48 33 26 36 39 29 25 24 19 13 11 8 2 355 356
226 219 209 201 198 196 191 179 171 165 161 156 146 142 141 141 140 138 132 122 109 95 85 93 97 84 63 54 62 51 46 38 35 33 26 26 21 15 16 15 11 6 358 2
253 233 218 205 194 183 178 173 168 161 153 148 146 146 144 143 141 138 132 125 121 116 104 92 100 88 65 50 69 59 52 44 37 29 27 22 21 11 9 8 5 2 2 5
301 229 190 176 160 157 158 154 148 146 148 145 141 138 138 140 140 136 129 125 140 154 151 120 105 91 67 55 67 65 55 48 41 30 29 27 18 8 2 0 359 360 0 0
27 88 115 129 129 131 139 141 142 142 142 143 144 146 145 143 141 137 131 132 162 155 138 122 117 117 96 80 67 64 55 49 44 37 31 22 15 8 3 1 0 359 357 355
40 88 100 106 112 115 120 125 131 134 134 135 136 138 138 138 137 131 135 152 164 152 136 126 136 136 122 86 75 62 52 48 39 27 18 11 7 359 355 354 353 352 349 343
64 101 107 110 117 117 110 116 125 134 138 141 143 144 144 146 147 144 151 173 160 150 142 151 157 145 112 93 92 72 58 52 34 12 4 358 350 344 342 342 338 336 333 332
69 97 109 111 108 115 121 125 122 126 130 134 141 144 142 139 140 154 153 160 163 156 154 164 163 151 118 118 120 110 103 80 339 326 337 339 338 336 332 330 326 322 320 323
125 128 128 132 133 143 145 132 121 118 120 124 132 140 143 146 150 159 156 162 167 163 167 176 168 144 119 138 152 168 195 215 212 215 265 298 304 306 306 308 312 317 319 318
193 175 175 172 163 156 152 142 139 139 135 135 139 143 140 142 146 150 155 165 170 167 170 183 180 154 157 175 192 203 218 258 325 338 289 289 290 293 296 303 311 313 314 315
208 181 164 155 157 153 150 151 152 156 156 154 156 160 157 156 155 159 159 162 166 169 174 180 182 181 186 196 208 222 232 234 241 259 279 285 288 290 297 310 316 318 319 321
Height
1503 1499 1498 1499 1499 1499 1505 1511 1517 1512 1507 1500 1496 1495 1496 1497 1498 1500 1501 1501 1502 1503 1504 1505 1505 1505 1505 1505 1504 1503 1502 1501 1499 1497 1495 1493 1490 1488 1485 1482 1479 1477 1474 1471
1502 1497 1496 1497 1495 1496 1498 1499 1502 1502 1500 1490 1491 1492 1494 1495 1496 1497 1498 1499 1500 1501 1502 1503 1504 1504 1504 1504 1503 1502 1501 1500 1498 1497 1495 1493 1490 1488 1486 1483 1480 1478 1475 1472
1513 1502 1499 1505 1493 1492 1492 1489 1492 1498 1493 1488 1490 1491 1491 1492 1494 1495 1496 1497 1499 1500 1500 1501 1502 1502 1502 1502 1502 1501 1500 1499 1498 1496 1494 1492 1490 1488 1486 1483 1481 1478 1476 1473
1514 1509 1515 1500 1482 1482 1484 1483 1482 1482 1482 1484 1485 1487 1489 1490 1491 1493 1494 1496 1497 1498 1499 1500 1501 1501 1501 1501 1501 1500 1499 1498 1497 1495 1494 1492 1490 1488 1486 1484 1481 1479 1477 1474
1517 1516 1510 1493 1480 1478 1482 1483 1477 1479 1480 1482 1485 1487 1489 1490 1490 1492 1493 1494 1496 1497 1498 1499 1499 1500 1500 1500 1500 1499 1498 1497 1496 1494 1493 1491 1489 1487 1486 1484 1482 1479 1477 1475
1515 1514 1515 1494 1477 1473 1478 1486 1476 1475 1478 1481 1483 1492 1490 1488 1489 1491 1492 1494 1495 1496 1497 1498 1498 1499 1499 1499 1498 1498 1497 1496 1495 1494 1492 1490 1488 1487 1485 1483 1481 1479 1477 1475
1513 1513 1504 1481 1474 1475 1492 1488 1474 1474 1475 1478 1480 1482 1484 1486 1488 1490 1491 1493 1494 1495 1496 1497 1497 1498 1498 1497 1497 1497 1496 1495 1494 1492 1491 1489 1487 1486 1484 1482 1481 1479 1477 1475
1511 1513 1503 1473 1474 1478 1477 1471 1472 1473 1474 1476 1477 1480 1482 1484 1487 1489 1490 1492 1493 1494 1495 1495 1496 1496 1496 1496 1496 1495 1494 1493 1492 1491 1489 1488 1486 1484 1483 1481 1479 1478 1476 1474
1492 1489 1473 1469 1469 1468 1469 1470 1471 1472 1473 1475 1477 1479 1481 1483 1485 1487 1489 1490 1491 1492 1493 1494 1495 1495 1495 1494 1494 1493 1492 1491 1490 1489 1488 1486 1484 1482 1481 1479 1477 1476 1474 1472
1482 1475 1469 1467 1467 1467 1468 1468 1469 1471 1472 1474 1475 1477 1480 1482 1484 1486 1487 1488 1490 1491 1492 1492 1493 1493 1493 1493 1492 1491 1490 1489 1488 1487 1485 1484 1482 1480 1479 1477 1475 1474 1472 1470
1479 1472 1469 1467 1466 1466 1467 1467 1468 1470 1471 1472 1474 1476 1478 1480 1482 1484 1485 1487 1488 1489 1490 1491 1491 1491 1491 1491 1490 1489 1488 1487 1486 1484 1483 1481 1480 1478 1477 1475 1474 1472 1470 1469
1475 1467 1467 1464 1463 1464 1464 1464 1466 1467 1469 1471 1472 1474 1476 1478 1479 1481 1483 1485 1486 1487 1488 1489 1489 1489 1489 1489 1488 1487 1486 1485 1484 1482 1481 1479 1477 1476 1475 1473 1472 1470 1468 1467
1463 1461 1460 1459 1459 1460 1460 1461 1463 1464 1466 1468 1470 1472 1473 1475 1477 1479 1481 1483 1484 1485 1486 1487 1487 1487 1487 1487 1486 1485 1484 1483 1482 1480 1478 1477 1475 1473 1472 1471 1469 1468 1466 1464
1457 1456 1455 1454 1454 1455 1456 1458 1460 1461 1463 1465 1467 1469 1471 1473 1475 1477 1479 1480 1482 1483 1484 1485 1485 1485 1485 1485 1484 1483 1482 1481 1480 1478 1476 1475 1473 1471 1469 1468 1466 1464 1463 1461
1452 1452 1451 1450 1451 1452 1453 1455 1456 1458 1460 1462 1464 1466 1468 1470 1472 1474 1476 1478 1480 1481 1482 1483 1483 1483 1483 1483 1482 1481 1480 1479 1478 1476 1475 1473 1472 1470 1468 1466 1464 1462 1460 1459
1446 1446 1446 1445 1446 1447 1449 1450 1452 1454 1456 1458 1461 1463 1466 1468 1470 1472 1475 1476 1478 1479 1480 1481 1481 1481 1481 1481 1480 1479 1478 1477 1476 1475 1473 1472 1470 1468 1466 1465 1463 1461 1459 1457
1441 1440 1440 1441 1441 1442 1444 1445 1447 1450 1452 1455 1458 1461 1463 1466 1468 1470 1472 1474 1476 1477 1478 1479 1479 1479 1479 1479 1478 1477 1477 1476 1475 1473 1472 1470 1469 1467 1465 1464 1462 1460 1458 1456
1435 1435 1435 1435 1436 1437 1439 1441 1444 1446 1449 1452 1455 1458 1461 1463 1465 1468 1470 1472 1474 1475 1476 1477 1477 1478 1478 1477 1477 1476 1475 1474 1473 1472 1471 1469 1468 1466 1465 1463 1461 1459 1457 1455
1429 1429 1429 1430 1431 1433 1434 1437 1440 1443 1446 1449 1452 1455 1458 1461 1464 1466 1468 1470 1472 1473 1474 1475 1476 1476 1476 1476 1475 1475 1474 1473 1472 1471 1470 1468 1467 1465 1464 1462 1460 1458 1456 1453
1424 1424 1424 1426 1427 1429 1431 1434 1437 1439 1443 1446 1449 1453 1456 1459 1462 1464 1466 1468 1470 1471 1473 1474 1474 1474 1474 1474 1474 1473 1472 1472 1471 1470 1468 1467 1465 1464 1462 1461 1459 1457 1454 1452
1422 1422 1422 1423 1425 1427 1429 1432 1434 1437 1440 1443 1446 1449 1453 1456 1460 1462 1464 1466 1468 1470 1471 1472 1472 1473 1473 1473 1472 1472 1471 1470 1469 1468 1467 1466 1464 1463 1461 1459 1457 1455 1453 1451
1423 1423 1423 1424 1425 1427 1429 1431 1434 1436 1439 1442 1445 1448 1451 1454 1458 1461 1463 1465 1467 1468 1469 1470 1471 1471 1471 1471 1471 1470 1470 1469 1468 1467 1465 1464 1463 1461 1459 1457 1456 1453 1451 1449
1424 1424 1424 1425 1426 1428 1430 1432 1434 1437 1439 1442 1444 1447 1450 1453 1456 1459 1461 1463 1465 1466 1468 1468 1469 1469 1469 1469 1469 1469 1468 1467 1466 1465 1464 1462 1461 1459 1457 1455 1453 1451 1449 1446
1425 1425 1425 1426 1427 1429 1430 1432 1434 1437 1439 1442 1444 1447 1450 1452 1455 1458 1460 1461 1463 1465 1466 1466 1467 1467 1468 1467 1467 1467 1466 1465 1464 1463 1462 1460 1459 1457 1455 1453 1451 1448 1446 1443
1426 1426 1426 1427 1428 1429 1431 1432 1434 1437 1439 1442 1444 1446 1449 1451 1453 1456 1458 1460 1461 1463 1464 1465 1465 1466 1466 1465 1465 1464 1464 1463 1462 1460 1459 1458 1456 1454 1452 1450 1447 1445 1442 1439
1426 1426 1426 1427 1427 1429 1430 1432 1433 1436 1438 1441 1443 1446 1448 1450 1452 1454 1456 1458 1459 1461 1462 1463 1463 1463 1463 1463 1463 1462 1461 1460 1459 1458 1456 1454 1453 1451 1449 1446 1444 1441 1438 1435
1425 1425 1425 1426 1427 1428 1429 1431 1433 1434 1437 1439 1441 1444 1446 1448 1450 1452 1454 1456 1457 1458 1459 1460 1460 1461 1461 1460 1460 1459 1458 1457 1456 1454 1453 1451 1449 1447 1445 1442 1439 1436 1433 1430